Location: Brachstadt
(48.6975°N, 10.6755°E)
Time: 13:51:37
(UTC+00:00)

Envisat - Pass Details

Date: 29 November 2022
Orbit: 763 x 765 km, 98.2° (Epoch: 06 February)

Event Time Altitude Azimuth Distance (km) Brightness Sun altitude
Rises 03:28:34 0° 15° (NNE) 3,246 6.5 -31.8°
Reaches altitude 10° 03:30:54 10° 18° (NNE) 2,315 5.7 -31.4°
Enters shadow 03:33:51 35° 28° (NNE) 1,227 4.2 -30.9°
